contact:dominique.lefevre@mio.osupytheas.fr, maurice.libes@osupytheas.fr, didier.mallarino@osupytheas.fr
Project:EMSO http://www.emso-fr.org/EMSO-France
Depth: 2436.0 m
Title:EMSO Ligure Ouest : Data MII capteur AQUADOPP
Date,Latitude,Longitude,X_East,Y_North,Z_Up,Amplitude_X,Amplitude_Y,Amplitude_Z,Batterie,SoundSpeed,Heading,Pitch,Roll,Pressure,TIS,Speed,Direction
, degrees North, degrees East, m.s-1, m.s-1,m.s-1, 1, 1, 1, Volt, m.s-1, degree, degree, degree, dbar, degree_C, m.s-1, degree
2020-06-28T00:04:03,42.805,6.029,-0.058,-0.034,0.006,104.0,105.0,102.0,13.4,1505.2,324.2,-0.7,1.8,2470.529,13.3,0.067,239.6
2020-06-28T00:07:03,42.805,6.029,-0.073,-0.023,0.026,105.0,105.0,102.0,13.4,1505.3,323.5,-0.7,1.9,2470.447,13.31,0.076,252.5
2020-06-28T00:10:03,42.805,6.029,-0.083,0.001,-0.01,103.0,104.0,102.0,13.4,1505.3,326.5,-0.7,1.8,2470.501,13.31,0.083,270.7
2020-06-28T00:13:03,42.805,6.029,-0.068,-0.032,-0.01,105.0,103.0,103.0,13.4,1505.3,324.6,-0.6,1.8,2470.443,13.32,0.075,244.8
2020-06-28T00:16:03,42.805,6.029,-0.054,-0.038,0.004,104.0,104.0,103.0,13.4,1505.3,324.8,-0.7,1.8,2470.492,13.32,0.066,234.9
2020-06-28T00:19:03,42.805,6.029,-0.074,-0.012,-0.011,105.0,105.0,102.0,13.3,1505.3,328.1,-0.7,1.8,2470.521,13.32,0.074,260.8
2020-06-28T00:22:03,42.805,6.029,-0.074,-0.012,-0.037,103.0,105.0,101.0,13.3,1505.3,324.2,-0.7,1.8,2470.475,13.32,0.074,260.8
2020-06-28T00:25:03,42.805,6.029,-0.067,-0.037,-0.021,104.0,104.0,102.0,13.4,1505.3,326.1,-0.7,1.8,2470.473,13.32,0.076,241.1
2020-06-28T00:31:03,42.805,6.029,-0.091,-0.018,-0.023,104.0,104.0,102.0,13.4,1505.2,322.7,-0.7,1.8,2470.537,13.3,0.092,258.8
2020-06-28T00:34:03,42.805,6.029,-0.078,-0.011,-0.019,104.0,105.0,102.0,13.4,1505.3,323.4,-0.8,1.8,2470.467,13.31,0.078,262.0
2020-06-28T00:37:03,42.805,6.029,-0.08,-0.017,-0.009,105.0,104.0,101.0,13.4,1505.3,323.7,-0.7,1.8,2470.462,13.31,0.081,258.0
2020-06-28T00:40:03,42.805,6.029,-0.075,-0.018,-0.022,104.0,104.0,102.0,13.4,1505.3,327.4,-0.7,1.8,2470.481,13.32,0.077,256.5
2020-06-28T00:43:03,42.805,6.029,-0.078,-0.014,-0.039,104.0,105.0,102.0,13.3,1505.3,326.3,-0.7,1.8,2470.452,13.32,0.079,259.8
2020-06-28T00:46:03,42.805,6.029,-0.062,-0.023,0.0,104.0,105.0,100.0,13.4,1505.3,323.4,-0.7,1.8,2470.428,13.32,0.066,249.7
2020-06-28T00:49:03,42.805,6.029,-0.074,-0.019,-0.022,103.0,104.0,102.0,13.4,1505.3,326.2,-0.7,1.8,2470.491,13.32,0.076,255.6
2020-06-28T00:52:03,42.805,6.029,-0.069,-0.036,-0.014,105.0,105.0,102.0,13.3,1505.3,324.3,-0.7,1.8,2470.469,13.32,0.077,242.4
2020-06-28T00:55:03,42.805,6.029,-0.071,-0.015,-0.01,104.0,104.0,102.0,13.4,1505.3,324.0,-0.7,1.9,2470.458,13.32,0.072,258.1
2020-06-28T00:58:03,42.805,6.029,-0.076,-0.015,0.001,104.0,103.0,102.0,13.4,1505.3,324.1,-0.7,1.8,2470.469,13.32,0.077,258.8
2020-06-28T01:01:03,42.805,6.029,-0.065,-0.009,0.012,105.0,104.0,102.0,13.4,1505.3,327.4,-0.7,1.8,2470.404,13.32,0.065,262.1
2020-06-28T01:04:03,42.805,6.029,-0.072,-0.017,-0.04,105.0,106.0,103.0,13.4,1505.3,328.6,-0.7,1.8,2470.462,13.32,0.073,256.7
2020-06-28T01:07:03,42.805,6.029,-0.081,-0.017,-0.002,104.0,104.0,102.0,13.4,1505.3,324.3,-0.7,1.9,2470.457,13.32,0.082,258.1
2020-06-28T01:10:03,42.805,6.029,-0.068,-0.017,0.015,104.0,105.0,102.0,13.4,1505.3,326.2,-0.7,1.8,2470.427,13.32,0.07,256.0
2020-06-28T01:13:03,42.805,6.029,-0.067,-0.022,-0.018,104.0,105.0,102.0,13.4,1505.3,326.6,-0.7,1.8,2470.423,13.32,0.07,251.8
2020-06-28T01:16:03,42.805,6.029,-0.072,-0.011,-0.014,104.0,104.0,102.0,13.4,1505.3,325.1,-0.7,1.8,2470.428,13.32,0.072,261.3
2020-06-28T01:19:03,42.805,6.029,-0.081,-0.018,-0.023,105.0,104.0,102.0,13.4,1505.3,323.5,-0.7,1.8,2470.43,13.32,0.082,257.5
2020-06-28T01:22:03,42.805,6.029,-0.07,-0.022,-0.007,105.0,105.0,101.0,13.3,1505.3,328.2,-0.7,1.8,2470.427,13.32,0.073,252.6
2020-06-28T01:25:03,42.805,6.029,-0.08,-0.025,-0.005,104.0,104.0,102.0,13.4,1505.3,326.0,-0.7,1.9,2470.416,13.32,0.083,252.6
2020-06-28T01:28:03,42.805,6.029,-0.083,-0.017,-0.017,104.0,105.0,101.0,13.4,1505.3,324.5,-0.7,1.9,2470.444,13.32,0.084,258.4
2020-06-28T01:31:03,42.805,6.029,-0.065,-0.018,-0.012,103.0,105.0,102.0,13.3,1505.3,324.4,-0.7,1.9,2470.433,13.32,0.067,254.5
2020-06-28T01:34:03,42.805,6.029,-0.073,-0.021,0.002,104.0,104.0,103.0,13.4,1505.3,324.6,-0.7,1.8,2470.421,13.32,0.075,254.0
2020-06-28T01:37:03,42.805,6.029,-0.081,0.006,-0.004,103.0,104.0,102.0,13.4,1505.3,326.9,-0.7,1.8,2470.406,13.32,0.081,274.2
2020-06-28T01:40:03,42.805,6.029,-0.052,-0.016,-0.004,104.0,106.0,102.0,13.4,1505.3,325.7,-0.7,1.9,2470.456,13.32,0.054,252.9
2020-06-28T01:43:03,42.805,6.029,-0.074,-0.008,-0.011,105.0,105.0,102.0,13.3,1505.3,327.0,-0.7,1.8,2470.447,13.32,0.074,263.8
2020-06-28T01:46:03,42.805,6.029,-0.084,-0.005,-0.011,104.0,105.0,101.0,13.4,1505.3,326.8,-0.7,1.8,2470.42,13.32,0.084,266.6
2020-06-28T01:49:03,42.805,6.029,-0.078,-0.019,-0.045,105.0,104.0,101.0,13.4,1505.3,328.0,-0.7,1.8,2470.418,13.32,0.08,256.3
2020-06-28T01:52:03,42.805,6.029,-0.065,-0.035,-0.019,104.0,103.0,102.0,13.4,1505.3,323.7,-0.7,1.9,2470.417,13.32,0.073,241.7
2020-06-28T01:55:03,42.805,6.029,-0.086,0.004,0.007,106.0,104.0,101.0,13.4,1505.3,326.5,-0.7,1.8,2470.426,13.32,0.086,272.7
2020-06-28T01:58:03,42.805,6.029,-0.064,-0.005,0.006,105.0,105.0,102.0,13.4,1505.3,324.7,-0.7,1.8,2470.427,13.32,0.064,265.5
2020-06-28T02:04:03,42.805,6.029,-0.081,-0.019,0.018,104.0,104.0,102.0,13.3,1505.2,324.7,-0.7,1.8,2470.45,13.3,0.083,256.8
2020-06-28T02:07:03,42.805,6.029,-0.06,-0.013,-0.015,105.0,105.0,102.0,13.4,1505.3,326.5,-0.8,1.9,2470.43,13.31,0.061,257.8
2020-06-28T02:10:03,42.805,6.029,-0.077,-0.007,-0.014,103.0,106.0,103.0,13.3,1505.3,323.6,-0.7,1.8,2470.438,13.31,0.077,264.8
2020-06-28T02:16:03,42.805,6.029,-0.083,-0.014,-0.021,103.0,105.0,101.0,13.4,1505.2,327.3,-0.7,1.8,2470.436,13.3,0.084,260.4
2020-06-28T02:19:03,42.805,6.029,-0.079,0.002,0.014,104.0,105.0,102.0,13.4,1505.3,324.4,-0.7,1.8,2470.46,13.31,0.079,271.4
2020-06-28T02:22:03,42.805,6.029,-0.055,-0.01,-0.02,103.0,106.0,102.0,13.4,1505.3,324.9,-0.7,1.9,2470.492,13.31,0.055,259.7
2020-06-28T02:25:03,42.805,6.029,-0.094,0.006,-0.018,104.0,105.0,103.0,13.4,1505.3,325.0,-0.7,1.8,2470.443,13.32,0.094,273.6
2020-06-28T02:28:03,42.805,6.029,-0.076,-0.008,-0.022,104.0,105.0,103.0,13.4,1505.3,324.5,-0.7,1.8,2470.441,13.32,0.076,264.0
2020-06-28T02:31:03,42.805,6.029,-0.071,-0.007,-0.027,105.0,105.0,102.0,13.4,1505.3,326.1,-0.7,1.8,2470.428,13.32,0.071,264.4
2020-06-28T02:34:03,42.805,6.029,-0.08,0.006,-0.02,104.0,106.0,102.0,13.4,1505.3,325.9,-0.7,1.8,2470.43,13.32,0.08,274.3
2020-06-28T02:37:03,42.805,6.029,-0.068,-0.006,-0.012,105.0,105.0,102.0,13.3,1505.3,326.4,-0.7,1.9,2470.406,13.32,0.068,265.0
2020-06-28T02:40:03,42.805,6.029,-0.059,-0.003,-0.005,105.0,104.0,102.0,13.3,1505.3,324.0,-0.7,1.8,2470.408,13.32,0.059,267.1
2020-06-28T02:43:03,42.805,6.029,-0.063,-0.003,0.023,104.0,105.0,102.0,13.4,1505.3,323.9,-0.7,1.8,2470.43,13.32,0.063,267.3
2020-06-28T02:46:03,42.805,6.029,-0.06,-0.02,-0.011,104.0,107.0,102.0,13.4,1505.3,326.8,-0.7,1.8,2470.462,13.32,0.063,251.6
2020-06-28T02:49:03,42.805,6.029,-0.042,-0.024,-0.016,104.0,104.0,103.0,13.4,1505.3,326.2,-0.7,1.8,2470.372,13.32,0.048,240.3
2020-06-28T02:52:03,42.805,6.029,-0.079,-0.012,-0.014,104.0,105.0,103.0,13.4,1505.3,327.0,-0.7,1.8,2470.387,13.32,0.079,261.4
2020-06-28T02:55:03,42.805,6.029,-0.044,-0.015,-0.015,104.0,105.0,102.0,13.3,1505.3,326.9,-0.7,1.8,2470.404,13.32,0.046,251.2
2020-06-28T02:58:03,42.805,6.029,-0.062,-0.022,-0.02,104.0,106.0,102.0,13.3,1505.3,325.3,-0.7,1.8,2470.347,13.32,0.065,250.5
2020-06-28T03:04:03,42.805,6.029,-0.076,-0.037,-0.012,104.0,104.0,103.0,13.4,1505.2,323.4,-0.7,1.8,2470.403,13.3,0.084,244.0
2020-06-28T03:07:03,42.805,6.029,-0.082,-0.028,-0.058,104.0,105.0,101.0,13.4,1505.3,325.0,-0.7,1.8,2470.407,13.31,0.086,251.1
2020-06-28T03:10:03,42.805,6.029,-0.065,-0.009,0.004,104.0,105.0,102.0,13.4,1505.3,327.8,-0.7,1.8,2470.408,13.31,0.065,262.1
2020-06-28T03:13:03,42.805,6.029,-0.039,0.0,-0.012,105.0,106.0,101.0,13.3,1505.3,324.7,-0.7,1.9,2470.407,13.32,0.039,270.0
2020-06-28T03:16:03,42.805,6.029,-0.07,-0.002,0.002,105.0,104.0,103.0,13.4,1505.3,326.9,-0.7,1.8,2470.394,13.32,0.07,268.4
2020-06-28T03:19:03,42.805,6.029,-0.075,-0.013,-0.027,105.0,104.0,102.0,13.4,1505.3,326.2,-0.7,1.8,2470.392,13.32,0.076,260.2
2020-06-28T03:22:03,42.805,6.029,-0.061,-0.007,-0.015,104.0,104.0,102.0,13.3,1505.3,324.6,-0.7,1.8,2470.387,13.32,0.061,263.5
2020-06-28T03:25:03,42.805,6.029,-0.062,-0.01,-0.035,105.0,105.0,101.0,13.4,1505.3,327.5,-0.7,1.8,2470.393,13.32,0.062,260.8
2020-06-28T03:28:03,42.805,6.029,-0.063,-0.018,-0.051,105.0,104.0,101.0,13.4,1505.3,323.5,-0.7,1.9,2470.395,13.32,0.065,254.1
2020-06-28T03:31:03,42.805,6.029,-0.059,0.001,-0.024,104.0,105.0,101.0,13.3,1505.3,325.5,-0.7,1.9,2470.397,13.32,0.059,271.0
2020-06-28T03:34:03,42.805,6.029,-0.048,-0.03,-0.005,104.0,106.0,103.0,13.4,1505.3,324.8,-0.7,1.8,2470.418,13.32,0.056,238.0
2020-06-28T03:37:03,42.805,6.029,-0.093,-0.019,-0.023,105.0,104.0,102.0,13.4,1505.3,327.7,-0.7,1.8,2470.389,13.32,0.094,258.5
2020-06-28T03:40:03,42.805,6.029,-0.073,-0.013,-0.011,105.0,104.0,102.0,13.4,1505.3,327.4,-0.7,1.8,2470.396,13.32,0.074,259.9
2020-06-28T03:43:03,42.805,6.029,-0.055,-0.025,-0.027,104.0,104.0,102.0,13.4,1505.3,323.2,-0.7,1.8,2470.398,13.32,0.06,245.6
2020-06-28T03:46:03,42.805,6.029,-0.056,-0.032,-0.022,106.0,104.0,101.0,13.3,1505.3,325.2,-0.7,1.9,2470.373,13.32,0.064,240.3
2020-06-28T03:49:03,42.805,6.029,-0.065,-0.016,-0.018,105.0,106.0,102.0,13.3,1505.3,325.0,-0.7,1.8,2470.365,13.32,0.066,256.2
2020-06-28T03:52:03,42.805,6.029,-0.066,-0.006,0.008,104.0,105.0,101.0,13.3,1505.3,328.4,-0.7,1.9,2470.404,13.32,0.066,264.8
2020-06-28T03:55:03,42.805,6.029,-0.033,-0.048,-0.029,104.0,105.0,102.0,13.4,1505.3,323.3,-0.7,1.8,2470.352,13.32,0.058,214.5
2020-06-28T03:58:03,42.805,6.029,-0.074,-0.021,0.012,105.0,105.0,102.0,13.4,1505.3,324.0,-0.7,1.8,2470.392,13.32,0.076,254.2
2020-06-28T04:04:03,42.805,6.029,-0.062,-0.02,-0.003,104.0,104.0,102.0,13.4,1505.2,325.2,-0.7,1.8,2470.354,13.3,0.065,252.1
2020-06-28T04:07:03,42.805,6.029,-0.055,-0.004,-0.032,104.0,105.0,102.0,13.4,1505.3,327.6,-0.7,1.8,2470.402,13.31,0.055,265.8
2020-06-28T04:10:03,42.805,6.029,-0.048,-0.008,0.018,105.0,106.0,102.0,13.3,1505.3,326.6,-0.7,1.8,2470.338,13.31,0.048,260.5
2020-06-28T04:13:03,42.805,6.029,-0.06,-0.01,0.005,106.0,105.0,102.0,13.4,1505.3,323.8,-0.7,1.9,2470.362,13.32,0.06,260.5
2020-06-28T04:16:03,42.805,6.029,-0.064,-0.014,-0.029,104.0,105.0,103.0,13.3,1505.3,327.7,-0.7,1.8,2470.387,13.32,0.065,257.7
2020-06-28T04:19:03,42.805,6.029,-0.063,-0.01,-0.032,104.0,105.0,102.0,13.3,1505.3,326.5,-0.7,1.8,2470.37,13.32,0.063,261.0
2020-06-28T04:22:03,42.805,6.029,-0.062,-0.007,-0.008,105.0,105.0,102.0,13.4,1505.3,323.3,-0.7,1.8,2470.372,13.32,0.062,263.6
2020-06-28T04:25:03,42.805,6.029,-0.042,0.002,0.015,103.0,105.0,102.0,13.4,1505.3,328.1,-0.7,1.8,2470.342,13.32,0.042,272.7
2020-06-28T04:28:03,42.805,6.029,-0.061,-0.013,-0.01,105.0,105.0,102.0,13.3,1505.3,326.5,-0.7,1.8,2470.313,13.32,0.062,258.0
2020-06-28T04:31:03,42.805,6.029,-0.047,-0.018,-0.012,105.0,106.0,103.0,13.4,1505.3,326.2,-0.7,1.8,2470.32,13.32,0.05,249.0
2020-06-28T04:34:03,42.805,6.029,-0.046,-0.015,0.008,105.0,106.0,101.0,13.3,1505.3,326.0,-0.7,1.9,2470.351,13.32,0.048,251.9
2020-06-28T04:37:03,42.805,6.029,-0.062,-0.015,-0.01,105.0,105.0,103.0,13.4,1505.3,323.9,-0.7,1.8,2470.355,13.32,0.063,256.4
2020-06-28T04:40:03,42.805,6.029,-0.07,-0.007,0.013,104.0,104.0,102.0,13.4,1505.3,325.3,-0.7,1.8,2470.343,13.32,0.07,264.3
2020-06-28T04:43:03,42.805,6.029,-0.06,-0.032,-0.017,105.0,104.0,100.0,13.3,1505.3,323.0,-0.7,1.8,2470.364,13.32,0.067,241.9
2020-06-28T04:46:03,42.805,6.029,-0.06,-0.021,-0.028,104.0,106.0,101.0,13.4,1505.3,323.5,-0.7,1.9,2470.343,13.32,0.063,250.7
2020-06-28T04:49:03,42.805,6.029,-0.062,-0.006,-0.004,104.0,106.0,101.0,13.3,1505.3,322.6,-0.7,1.8,2470.355,13.32,0.062,264.5
2020-06-28T04:52:03,42.805,6.029,-0.064,-0.006,-0.012,104.0,104.0,101.0,13.4,1505.3,324.7,-0.7,1.8,2470.33,13.32,0.064,264.6
2020-06-28T04:55:03,42.805,6.029,-0.068,0.002,-0.027,104.0,105.0,102.0,13.4,1505.3,325.9,-0.7,1.8,2470.33,13.32,0.068,271.7
2020-06-28T04:58:03,42.805,6.029,-0.064,-0.001,0.004,105.0,106.0,102.0,13.4,1505.3,326.9,-0.7,1.9,2470.368,13.32,0.064,269.1
2020-06-28T05:04:03,42.805,6.029,-0.069,-0.011,-0.013,105.0,105.0,103.0,13.4,1505.2,325.1,-0.7,1.8,2470.382,13.3,0.069,260.9
2020-06-28T05:07:03,42.805,6.029,-0.064,-0.019,-0.066,105.0,105.0,102.0,13.4,1505.3,326.7,-0.7,1.9,2470.37,13.31,0.066,253.5
2020-06-28T05:10:03,42.805,6.029,-0.067,-0.003,-0.01,104.0,106.0,102.0,13.4,1505.3,325.4,-0.7,1.8,2470.4,13.31,0.067,267.4
2020-06-28T05:13:03,42.805,6.029,-0.07,-0.007,0.024,104.0,105.0,102.0,13.3,1505.3,323.2,-0.7,1.8,2470.361,13.32,0.07,264.3
2020-06-28T05:16:03,42.805,6.029,-0.058,-0.032,-0.01,105.0,105.0,102.0,13.3,1505.3,325.3,-0.7,1.9,2470.314,13.32,0.066,241.1
2020-06-28T05:19:03,42.805,6.029,-0.077,-0.017,-0.007,105.0,105.0,102.0,13.4,1505.3,327.7,-0.7,1.8,2470.336,13.32,0.078,257.6
2020-06-28T05:22:03,42.805,6.029,-0.088,-0.004,-0.03,104.0,105.0,103.0,13.3,1505.3,327.8,-0.7,1.8,2470.38,13.32,0.088,267.4
2020-06-28T05:25:03,42.805,6.029,-0.081,-0.006,-0.026,103.0,106.0,102.0,13.3,1505.3,325.6,-0.7,1.8,2470.345,13.32,0.081,265.8
2020-06-28T05:28:03,42.805,6.029,-0.05,-0.027,-0.003,105.0,104.0,102.0,13.4,1505.3,324.5,-0.7,1.9,2470.326,13.32,0.056,241.6
2020-06-28T05:31:03,42.805,6.029,-0.072,-0.001,-0.026,104.0,106.0,101.0,13.4,1505.3,326.1,-0.7,1.8,2470.312,13.32,0.072,269.2
2020-06-28T05:34:03,42.805,6.029,-0.07,-0.01,-0.036,105.0,105.0,101.0,13.4,1505.3,324.2,-0.7,1.8,2470.317,13.32,0.07,261.9
2020-06-28T05:37:03,42.805,6.029,-0.051,-0.016,0.038,105.0,104.0,102.0,13.4,1505.3,324.9,-0.7,1.8,2470.325,13.32,0.053,252.6
2020-06-28T05:40:03,42.805,6.029,-0.06,-0.034,-0.022,103.0,105.0,101.0,13.4,1505.3,323.5,-0.7,1.9,2470.323,13.32,0.068,240.5
2020-06-28T05:43:03,42.805,6.029,-0.076,-0.017,-0.007,104.0,105.0,102.0,13.4,1505.3,324.1,-0.7,1.8,2470.344,13.32,0.077,257.4
2020-06-28T05:46:03,42.805,6.029,-0.052,-0.019,-0.021,103.0,105.0,101.0,13.4,1505.3,325.9,-0.7,1.8,2470.323,13.32,0.055,249.9
2020-06-28T05:49:03,42.805,6.029,-0.035,-0.003,-0.025,103.0,105.0,101.0,13.4,1505.3,325.8,-0.7,1.8,2470.297,13.32,0.035,265.1
2020-06-28T05:52:03,42.805,6.029,-0.08,-0.023,-0.031,103.0,106.0,101.0,13.4,1505.3,323.0,-0.7,1.8,2470.318,13.32,0.083,254.0
2020-06-28T05:55:03,42.805,6.029,-0.067,-0.001,-0.043,105.0,104.0,101.0,13.4,1505.3,323.7,-0.7,1.9,2470.272,13.32,0.067,269.1
2020-06-28T05:58:03,42.805,6.029,-0.059,-0.018,-0.017,105.0,104.0,102.0,13.4,1505.3,328.4,-0.7,1.9,2470.306,13.32,0.061,253.0
2020-06-28T06:04:03,42.805,6.029,-0.052,0.01,0.017,104.0,103.0,102.0,13.3,1505.2,326.2,-0.8,1.8,2470.324,13.3,0.052,280.9
2020-06-28T06:07:03,42.805,6.029,-0.081,-0.005,-0.018,105.0,104.0,102.0,13.4,1505.3,325.6,-0.7,1.8,2470.29,13.31,0.081,266.5
2020-06-28T06:10:03,42.805,6.029,-0.054,-0.006,-0.006,105.0,106.0,101.0,13.4,1505.3,326.2,-0.7,1.8,2470.342,13.31,0.054,263.7
2020-06-28T06:13:03,42.805,6.029,-0.057,-0.008,0.014,105.0,105.0,101.0,13.3,1505.3,325.6,-0.7,1.8,2470.322,13.32,0.057,262.0
2020-06-28T06:16:03,42.805,6.029,-0.056,-0.028,-0.02,104.0,104.0,102.0,13.4,1505.3,322.6,-0.7,1.8,2470.302,13.32,0.062,243.4
2020-06-28T06:19:03,42.805,6.029,-0.043,-0.024,-0.02,104.0,105.0,102.0,13.4,1505.3,325.1,-0.7,1.9,2470.279,13.32,0.049,240.8
2020-06-28T06:22:03,42.805,6.029,-0.045,-0.013,-0.009,105.0,105.0,101.0,13.3,1505.3,327.1,-0.7,1.8,2470.296,13.32,0.046,253.9
2020-06-28T06:25:03,42.805,6.029,-0.047,-0.01,-0.006,104.0,104.0,101.0,13.3,1505.3,325.3,-0.7,1.8,2470.299,13.32,0.048,258.0
2020-06-28T06:28:03,42.805,6.029,-0.063,0.002,-0.026,103.0,105.0,101.0,13.3,1505.3,327.8,-0.7,1.9,2470.323,13.32,0.063,271.8
2020-06-28T06:31:03,42.805,6.029,-0.059,-0.009,-0.023,104.0,104.0,101.0,13.3,1505.3,326.9,-0.7,1.8,2470.275,13.32,0.059,261.3
2020-06-28T06:34:03,42.805,6.029,-0.048,-0.011,0.0,104.0,104.0,101.0,13.4,1505.3,327.8,-0.7,1.8,2470.266,13.32,0.049,257.1
2020-06-28T06:37:03,42.805,6.029,-0.069,-0.032,-0.015,104.0,105.0,102.0,13.4,1505.3,323.5,-0.7,1.9,2470.286,13.32,0.076,245.1
2020-06-28T06:40:03,42.805,6.029,-0.082,-0.014,-0.013,104.0,105.0,101.0,13.4,1505.3,325.4,-0.7,1.8,2470.306,13.32,0.083,260.3
2020-06-28T06:43:03,42.805,6.029,-0.056,-0.002,-0.004,103.0,105.0,101.0,13.4,1505.3,325.4,-0.7,1.8,2470.31,13.32,0.056,268.0
2020-06-28T06:46:03,42.805,6.029,-0.052,-0.013,-0.016,103.0,105.0,102.0,13.3,1505.3,327.7,-0.7,1.8,2470.321,13.32,0.053,256.0
2020-06-28T06:49:03,42.805,6.029,-0.073,0.012,-0.01,104.0,105.0,101.0,13.4,1505.3,327.1,-0.7,1.9,2470.263,13.32,0.073,279.3
2020-06-28T06:52:03,42.805,6.029,-0.077,-0.019,0.002,104.0,105.0,101.0,13.4,1505.3,323.4,-0.7,1.8,2470.249,13.32,0.079,256.1
2020-06-28T06:55:03,42.805,6.029,-0.056,-0.024,-0.04,104.0,105.0,102.0,13.4,1505.3,327.9,-0.7,1.8,2470.294,13.32,0.06,246.8
2020-06-28T06:58:03,42.805,6.029,-0.061,0.001,-0.011,105.0,104.0,102.0,13.4,1505.3,326.4,-0.7,1.9,2470.265,13.32,0.061,270.9
2020-06-28T07:04:03,42.805,6.029,-0.033,-0.012,-0.011,105.0,105.0,102.0,13.4,1505.2,324.5,-0.8,1.8,2470.339,13.3,0.035,250.0
2020-06-28T07:07:03,42.805,6.029,-0.068,-0.012,-0.013,106.0,105.0,100.0,13.4,1505.3,326.1,-0.7,1.8,2470.27,13.31,0.069,260.0
2020-06-28T07:10:03,42.805,6.029,-0.061,-0.014,-0.03,104.0,104.0,101.0,13.4,1505.3,327.0,-0.7,1.8,2470.281,13.31,0.062,257.1
2020-06-28T07:13:03,42.805,6.029,-0.055,-0.006,-0.002,105.0,104.0,103.0,13.4,1505.3,323.0,-0.7,1.8,2470.29,13.32,0.055,263.8
2020-06-28T07:16:03,42.805,6.029,-0.045,0.007,0.0,103.0,104.0,102.0,13.4,1505.3,324.8,-0.7,1.8,2470.3,13.32,0.045,278.8
2020-06-28T07:19:03,42.805,6.029,-0.078,-0.014,0.0,104.0,104.0,100.0,13.4,1505.3,327.8,-0.7,1.8,2470.283,13.32,0.079,259.8
2020-06-28T07:22:03,42.805,6.029,-0.067,-0.004,-0.009,104.0,104.0,102.0,13.4,1505.3,325.9,-0.7,1.8,2470.3,13.32,0.067,266.6
2020-06-28T07:25:03,42.805,6.029,-0.073,0.007,-0.024,105.0,104.0,102.0,13.4,1505.3,325.9,-0.7,1.8,2470.275,13.32,0.073,275.5
2020-06-28T07:28:03,42.805,6.029,-0.069,-0.003,-0.016,104.0,106.0,102.0,13.4,1505.3,325.6,-0.7,1.8,2470.273,13.32,0.069,267.5
2020-06-28T07:31:03,42.805,6.029,-0.046,-0.016,-0.043,105.0,105.0,102.0,13.4,1505.3,325.9,-0.7,1.9,2470.288,13.32,0.048,250.8
2020-06-28T07:34:03,42.805,6.029,-0.065,-0.003,-0.02,104.0,106.0,102.0,13.4,1505.3,325.5,-0.7,1.8,2470.273,13.32,0.065,267.4
2020-06-28T07:37:03,42.805,6.029,-0.07,-0.012,-0.03,105.0,105.0,101.0,13.4,1505.3,323.8,-0.7,1.9,2470.297,13.32,0.071,260.3
2020-06-28T07:40:03,42.805,6.029,-0.067,-0.016,-0.013,104.0,104.0,102.0,13.4,1505.3,326.4,-0.7,1.8,2470.29,13.32,0.068,256.6
2020-06-28T07:43:03,42.805,6.029,-0.075,-0.016,-0.019,105.0,105.0,102.0,13.4,1505.3,327.0,-0.7,1.8,2470.28,13.32,0.076,258.0
2020-06-28T07:46:03,42.805,6.029,-0.045,-0.013,-0.021,105.0,105.0,101.0,13.4,1505.3,324.5,-0.7,1.9,2470.236,13.32,0.046,253.9
2020-06-28T07:49:03,42.805,6.029,-0.039,-0.02,-0.018,104.0,105.0,102.0,13.3,1505.3,324.6,-0.7,1.8,2470.26,13.32,0.043,242.9
2020-06-28T07:52:03,42.805,6.029,-0.073,0.001,-0.007,104.0,105.0,101.0,13.4,1505.3,326.3,-0.8,1.8,2470.321,13.32,0.073,270.8
2020-06-28T07:55:03,42.805,6.029,-0.045,-0.022,-0.02,104.0,106.0,102.0,13.4,1505.3,324.2,-0.7,1.8,2470.258,13.32,0.05,243.9
2020-06-28T07:58:03,42.805,6.029,-0.067,-0.011,-0.013,105.0,105.0,102.0,13.4,1505.3,325.7,-0.7,1.8,2470.284,13.32,0.067,260.7
2020-06-28T08:04:03,42.805,6.029,-0.039,0.008,0.0,104.0,106.0,101.0,13.4,1505.2,326.5,-0.7,1.8,2470.305,13.3,0.039,281.6
2020-06-28T08:07:03,42.805,6.029,-0.083,0.013,-0.027,104.0,106.0,103.0,13.4,1505.3,324.0,-0.7,1.9,2470.286,13.31,0.084,278.9
2020-06-28T08:10:03,42.805,6.029,-0.048,-0.034,0.009,105.0,106.0,101.0,13.4,1505.3,324.3,-0.7,1.9,2470.3,13.32,0.058,234.7
2020-06-28T08:13:03,42.805,6.029,-0.071,-0.01,-0.004,104.0,105.0,103.0,13.4,1505.3,326.9,-0.7,1.8,2470.249,13.32,0.071,262.0
2020-06-28T08:16:03,42.805,6.029,-0.064,-0.007,-0.037,103.0,104.0,103.0,13.3,1505.3,325.4,-0.7,1.8,2470.287,13.32,0.064,263.8
2020-06-28T08:19:03,42.805,6.029,-0.072,-0.005,-0.008,104.0,105.0,102.0,13.3,1505.3,327.3,-0.7,1.8,2470.288,13.32,0.072,266.0
2020-06-28T08:22:03,42.805,6.029,-0.077,-0.013,0.001,106.0,104.0,104.0,13.3,1505.3,326.3,-0.7,1.8,2470.263,13.32,0.078,260.4
2020-06-28T08:25:03,42.805,6.029,-0.069,0.0,-0.008,102.0,105.0,102.0,13.4,1505.3,326.9,-0.7,1.8,2470.269,13.32,0.068,270.0
2020-06-28T08:28:03,42.805,6.029,-0.051,-0.014,-0.004,105.0,105.0,101.0,13.4,1505.3,324.9,-0.7,1.8,2470.306,13.32,0.052,254.7
2020-06-28T08:31:03,42.805,6.029,-0.046,-0.018,-0.014,105.0,105.0,103.0,13.3,1505.3,327.7,-0.7,1.8,2470.282,13.32,0.049,248.6
2020-06-28T08:34:03,42.805,6.029,-0.059,-0.014,-0.042,104.0,105.0,102.0,13.3,1505.3,325.5,-0.7,1.8,2470.263,13.32,0.06,256.7
2020-06-28T08:37:03,42.805,6.029,-0.078,0.01,0.033,104.0,106.0,103.0,13.4,1505.3,327.2,-0.7,1.8,2470.278,13.32,0.078,277.3
2020-06-28T08:40:03,42.805,6.029,-0.053,-0.025,-0.035,105.0,105.0,102.0,13.4,1505.3,324.5,-0.7,1.9,2470.282,13.32,0.058,244.7
2020-06-28T08:43:03,42.805,6.029,-0.046,-0.02,-0.022,103.0,106.0,102.0,13.4,1505.3,323.8,-0.7,1.8,2470.308,13.32,0.05,246.5
2020-06-28T08:46:03,42.805,6.029,-0.062,-0.014,-0.043,104.0,103.0,102.0,13.4,1505.3,325.2,-0.7,1.8,2470.23,13.32,0.063,257.3
2020-06-28T08:49:03,42.805,6.029,-0.068,-0.01,-0.006,104.0,104.0,101.0,13.4,1505.3,325.0,-0.7,1.8,2470.304,13.32,0.068,261.6
2020-06-28T08:52:03,42.805,6.029,-0.078,-0.033,-0.003,105.0,104.0,101.0,13.3,1505.3,324.9,-0.7,1.8,2470.256,13.32,0.084,247.1
2020-06-28T08:55:03,42.805,6.029,-0.043,-0.002,-0.005,104.0,105.0,101.0,13.4,1505.3,325.1,-0.7,1.8,2470.263,13.32,0.043,267.3
2020-06-28T08:58:03,42.805,6.029,-0.054,-0.001,-0.017,105.0,104.0,102.0,13.3,1505.3,326.5,-0.7,1.8,2470.261,13.32,0.054,268.9
2020-06-28T09:04:03,42.805,6.029,-0.071,-0.011,-0.024,104.0,105.0,101.0,13.4,1505.2,325.4,-0.7,1.8,2470.344,13.3,0.071,261.2
2020-06-28T09:07:03,42.805,6.029,-0.095,-0.003,-0.038,104.0,105.0,102.0,13.4,1505.3,326.4,-0.7,1.8,2470.301,13.31,0.095,268.2
2020-06-28T09:10:03,42.805,6.029,-0.041,-0.024,-0.011,105.0,105.0,102.0,13.4,1505.3,324.4,-0.7,1.8,2470.287,13.31,0.047,239.7
2020-06-28T09:13:03,42.805,6.029,-0.075,-0.016,-0.037,103.0,104.0,103.0,13.4,1505.3,325.3,-0.7,1.8,2470.294,13.32,0.076,258.0
2020-06-28T09:16:03,42.805,6.029,-0.06,-0.011,-0.029,105.0,104.0,101.0,13.4,1505.3,324.0,-0.7,1.8,2470.33,13.32,0.06,259.6
2020-06-28T09:19:03,42.805,6.029,-0.069,0.0,-0.015,104.0,105.0,102.0,13.4,1505.3,326.3,-0.7,1.8,2470.276,13.32,0.068,270.0
2020-06-28T09:22:03,42.805,6.029,-0.041,-0.02,-0.042,103.0,105.0,101.0,13.3,1505.3,322.7,-0.7,1.8,2470.345,13.32,0.045,244.0
2020-06-28T09:25:03,42.805,6.029,-0.072,-0.004,-0.001,104.0,104.0,101.0,13.3,1505.3,326.5,-0.7,1.8,2470.29,13.32,0.072,266.8
2020-06-28T09:28:03,42.805,6.029,-0.08,-0.003,-0.009,104.0,106.0,102.0,13.4,1505.3,324.9,-0.7,1.8,2470.272,13.32,0.08,267.9
2020-06-28T09:31:03,42.805,6.029,-0.101,-0.025,-0.004,104.0,104.0,102.0,13.3,1505.3,327.7,-0.7,1.8,2470.299,13.32,0.104,256.1
2020-06-28T09:34:03,42.805,6.029,-0.062,-0.027,0.001,105.0,105.0,102.0,13.4,1505.3,324.5,-0.7,1.9,2470.329,13.32,0.067,246.5
2020-06-28T09:37:03,42.805,6.029,-0.07,-0.018,0.02,104.0,104.0,102.0,13.4,1505.3,325.9,-0.7,1.8,2470.304,13.32,0.072,255.6
2020-06-28T09:40:03,42.805,6.029,-0.066,-0.021,0.0,104.0,105.0,102.0,13.4,1505.3,324.4,-0.7,1.8,2470.297,13.32,0.069,252.4
2020-06-28T09:43:03,42.805,6.029,-0.074,-0.026,-0.02,104.0,105.0,101.0,13.4,1505.3,328.1,-0.7,1.8,2470.337,13.32,0.078,250.6
2020-06-28T09:46:03,42.805,6.029,-0.067,-0.006,-0.022,104.0,104.0,102.0,13.3,1505.3,327.7,-0.7,1.9,2470.305,13.32,0.067,264.9
2020-06-28T09:49:03,42.805,6.029,-0.075,0.0,0.002,105.0,105.0,102.0,13.4,1505.3,328.6,-0.7,1.8,2470.331,13.32,0.074,270.0
2020-06-28T09:52:03,42.805,6.029,-0.066,-0.012,-0.017,104.0,105.0,102.0,13.4,1505.3,324.2,-0.7,1.8,2470.282,13.32,0.067,259.7
2020-06-28T09:55:03,42.805,6.029,-0.083,0.006,-0.002,103.0,105.0,103.0,13.4,1505.3,325.5,-0.7,1.8,2470.324,13.32,0.083,274.1